Find Starlink 11535

NORAD ID: 62595 Int'l Des: 2025-008 Owner: SPXS Country: US Constellation: starlink operational
LEOCIRCULAR

Live-Position

3D-Globus wird geladen...

Über Starlink 11535

Beschreibung wird geladen...

Nächste Überflüge

Passes for default location (London). Set your location on the main map for personalized predictions.

Höhenverlauf

Loading altitude history...

Zweizeiliger Elementsatz

1 62595U 25008J 26123.53057695 .00182098 00000-0 13895-2 0 9992
2 62595 42.9983 155.2082 0000405 236.5953 123.4875 15.70878309 75762
Epoch: 3. Mai 2026 • Age: 14 hours

Aktueller Status

Höhe 355.0 km
Geschwindigkeit 7.70 km/s
Subsatellitenpunkt 18.54°N, 41.94°E
Startdatum 13. Jan. 2025
Alter 1.3 years
Typ internet

Technische Details

Klassifizierung Payload
Masse 960.00 kg
Trockenmasse 910.00 kg
Gesamtmasse 960.00 kg
Länge 0.30 m
Durchmesser 4.10 m
Spannweite 29.00 m
Form Box + pan
Hersteller SPXS
Bus-Typ Starlink V2MD
Phasenstatus In Orbit
Besitzer/Staat SPXS/US

Most Searched